Theta_e
310 311 311 311 311 311 311 311 311 310 306 302 301 301 303 305 305 316 320 317 314 314 307 308 311 316 317 319 320 321 323 325 324 325 326 327 328 329 327 327 329 330 330 330 329
310 310 311 310 311 311 310 311 311 309 306 301 300 301 304 305 315 320 316 312 308 307 313 313 313 314 316 318 319 321 323 322 323 324 325 325 326 327 328 328 328 330 330 329 328
309 309 309 309 310 310 310 311 309 309 306 301 300 301 304 306 322 320 311 311 312 309 315 314 314 315 315 317 319 320 322 322 323 323 324 323 324 325 326 328 328 330 331 330 328
308 308 309 309 310 310 310 309 309 308 304 300 300 302 305 314 327 315 311 311 311 315 320 314 313 313 315 316 318 319 320 321 322 323 323 323 324 324 324 327 328 328 329 329 330
306 308 309 309 309 310 310 308 307 304 301 300 300 303 312 322 323 313 311 310 313 318 319 318 317 315 314 315 316 317 318 319 321 321 321 321 321 322 323 324 326 327 327 328 328
305 307 309 309 310 310 311 308 305 302 301 300 300 304 316 320 319 315 314 315 317 316 317 317 318 317 316 317 317 317 317 318 318 318 319 320 320 320 321 323 324 325 326 326 326
305 306 308 309 310 309 309 307 307 303 301 300 301 310 316 317 315 317 317 316 316 315 316 316 316 316 316 317 317 317 316 316 317 317 317 318 318 319 320 321 321 322 323 326 324
306 306 307 308 308 307 307 310 311 308 301 300 302 314 318 316 314 315 315 316 315 314 315 315 315 315 315 316 316 316 317 317 317 317 317 317 317 318 319 320 320 320 321 322 323
306 306 306 307 308 306 310 311 310 308 305 303 311 317 321 312 312 314 314 316 315 314 314 314 314 314 315 315 316 316 315 316 317 318 318 317 317 318 318 319 321 321 321 321 322
307 307 307 307 306 308 311 313 315 313 309 313 316 321 319 319 313 313 314 314 314 314 314 314 314 315 315 315 315 316 317 318 318 318 318 317 317 317 318 318 320 320 320 320 321
307 307 307 308 306 309 311 317 320 322 321 321 322 320 318 317 316 315 315 315 314 314 314 315 316 317 317 317 317 317 318 318 318 319 317 317 318 317 318 318 319 319 320 321 322
308 308 307 306 308 309 309 320 317 316 317 319 320 317 316 316 316 316 315 315 314 315 316 316 316 316 316 315 316 317 316 316 315 316 316 316 317 317 318 319 319 320 321 321 322
308 307 305 306 309 310 316 316 315 316 318 319 318 315 315 315 316 316 316 315 314 315 317 317 317 317 316 315 316 315 315 315 316 316 317 317 318 318 318 318 319 320 320 321 321
308 307 305 307 310 317 318 316 315 316 319 322 316 315 315 315 315 316 316 315 315 315 316 316 317 316 316 315 315 315 315 316 316 317 317 317 319 319 319 319 319 319 320 320 320
305 307 307 309 313 319 317 314 314 317 331 319 318 316 316 316 317 316 315 315 315 315 316 316 317 316 316 315 315 315 316 316 316 316 317 317 317 318 319 319 320 320 320 319 318
300 308 309 314 314 318 315 315 317 326 329 320 317 316 315 316 316 316 316 315 315 315 315 316 316 316 316 316 316 316 315 315 316 316 318 316 317 318 319 320 319 319 318 318 318
301 304 308 312 317 317 315 317 325 328 322 321 318 317 316 316 316 317 317 317 317 318 318 318 318 317 317 316 316 315 316 317 318 319 320 318 318 320 320 317 317 317 317 317 318
304 303 309 311 314 316 315 320 325 323 323 320 318 317 316 316 316 316 317 318 317 317 318 318 318 317 317 317 318 318 317 319 324 324 322 320 321 319 320 318 316 317 317 316 316
306 313 314 316 319 316 318 322 324 323 321 319 317 316 316 317 317 317 317 316 316 316 317 318 318 317 318 317 318 318 320 318 319 321 324 320 319 318 318 317 316 315 316 316 316
306 317 319 320 317 316 320 322 322 320 318 318 318 317 316 316 317 317 317 317 317 317 316 316 318 316 316 316 317 318 317 320 318 322 323 318 319 319 320 319 317 315 316 317 318
311 322 320 318 316 316 322 323 322 319 316 314 316 317 316 315 315 315 315 315 315 315 317 317 317 316 317 316 316 317 320 320 320 318 321 321 318 317 318 319 318 317 316 317 318
313 321 319 316 317 321 324 320 315 315 315 315 315 315 316 315 316 316 316 316 315 315 316 317 319 320 318 317 315 315 318 319 322 325 323 320 321 316 318 318 319 318 317 317 317
312 315 317 312 317 321 318 317 316 316 315 314 315 315 315 316 317 316 315 315 315 315 316 316 317 319 315 315 315 317 317 317 318 318 322 325 322 316 319 319 318 318 317 317 318
313 315 318 316 316 316 316 316 316 316 316 314 313 314 315 315 315 315 315 315 314 314 317 314 316 316 319 316 314 315 317 316 317 318 318 318 316 317 318 317 319 318 318 317 317
314 315 315 315 314 315 315 315 316 317 316 315 315 315 316 315 313 313 313 313 313 314 315 314 317 316 313 311 312 312 312 313 318 318 320 317 317 316 315 316 319 318 317 316 318
313 311 311 311 313 315 315 316 316 316 314 313 314 312 312 312 311 312 311 311 312 312 313 314 313 311 310 311 313 313 313 313 312 312 312 314 314 313 314 315 316 317 317 316 319
309 308 309 311 313 316 316 314 314 313 312 313 312 312 311 311 309 309 309 309 309 309 310 311 311 314 315 313 313 315 312 314 315 316 315 316 316 315 316 319 319 318 318 319 320
Wind_Speed
18 17 17 16 16 16 16 16 16 15 14 13 12 13 15 18 19 13 11 2 4 11 12 11 13 16 18 17 20 20 15 16 24 23 20 20 17 16 15 10 14 12 21 23 7
18 18 18 17 17 16 16 16 16 16 15 13 13 13 15 17 18 19 6 3 5 7 6 11 12 14 13 18 17 18 17 25 22 22 20 21 21 18 18 15 14 19 18 23 13
19 19 18 18 17 17 17 17 16 16 14 13 13 14 16 16 11 5 9 3 3 5 9 10 11 13 16 16 19 21 22 22 23 21 22 23 24 23 16 15 14 20 23 19 18
20 20 19 18 17 17 17 17 16 15 12 11 11 13 15 9 3 10 8 3 2 6 14 11 9 12 14 16 20 24 24 24 24 23 23 23 23 23 24 15 19 20 21 24 19
22 21 20 19 17 17 16 15 14 12 10 9 9 11 9 8 9 13 9 5 6 10 16 9 9 12 15 17 19 22 23 22 22 22 24 22 26 25 23 21 17 17 15 15 19
22 22 21 19 18 18 17 15 11 8 8 8 7 8 7 12 14 11 8 8 10 10 12 8 9 9 11 15 16 18 19 19 21 21 21 23 20 22 26 22 17 18 17 15 14
22 21 22 21 20 18 17 14 12 8 6 6 5 5 11 16 3 9 8 9 10 6 9 10 7 10 11 13 12 15 18 19 21 17 21 21 24 25 23 23 21 22 21 16 15
22 20 22 21 19 16 15 11 8 6 6 6 6 6 8 7 15 9 10 10 10 9 10 11 11 13 13 14 17 16 16 17 19 23 24 20 26 23 21 20 23 23 20 19 13
24 22 20 18 16 12 7 3 5 3 6 7 5 9 12 6 10 12 11 11 11 9 10 10 9 12 14 14 14 14 16 21 22 22 19 24 26 22 21 20 20 19 15 17 10
24 23 18 13 8 8 5 6 6 3 4 6 14 9 10 11 10 15 9 9 8 10 11 11 11 11 13 12 13 18 19 15 17 14 9 14 18 17 21 18 20 15 13 12 13
25 21 16 9 5 6 6 7 5 6 16 14 2 12 4 2 1 7 10 11 10 11 12 14 12 12 16 16 19 18 18 17 20 19 15 16 16 14 17 18 17 13 14 13 14
25 19 11 5 5 8 7 6 8 8 10 19 21 15 15 4 8 13 15 10 12 13 14 15 14 15 16 17 17 14 17 19 20 20 19 21 21 17 16 20 20 18 16 16 16
22 18 9 5 7 10 12 7 9 11 8 15 14 12 12 13 13 12 15 14 14 16 16 16 16 17 11 14 16 15 18 18 20 19 21 21 20 18 22 22 23 23 19 14 14
21 16 9 6 7 12 10 6 11 7 6 11 9 9 12 10 15 17 11 11 14 18 17 16 17 13 15 12 18 16 18 17 18 16 16 14 16 20 20 18 17 12 16 15 18
21 13 7 5 14 11 10 11 10 6 5 8 11 8 8 13 3 11 12 11 15 17 17 19 17 17 17 15 17 17 15 17 20 18 18 22 14 19 20 21 21 19 17 12 7
20 13 9 9 12 12 12 10 6 6 8 8 6 7 10 14 14 12 10 12 12 17 18 22 21 23 23 18 17 16 14 17 21 15 16 25 20 21 19 21 17 13 10 8 10
22 14 13 12 10 14 13 9 6 7 2 4 4 7 11 13 15 15 15 17 15 17 19 22 23 24 21 25 23 17 18 13 15 13 17 23 20 10 21 6 7 10 9 6 7
29 17 14 14 13 12 11 8 9 12 15 6 4 12 15 17 17 17 17 16 15 18 18 19 20 18 18 13 18 18 17 10 14 15 17 24 13 9 12 19 12 9 15 14 12
28 5 7 14 9 6 6 8 9 14 13 11 14 17 18 16 17 7 13 16 16 15 17 18 24 22 20 12 13 16 16 18 12 9 12 17 28 25 17 17 8 12 9 8 7
19 12 16 12 5 5 6 12 20 20 7 11 17 13 17 16 16 12 12 8 12 12 11 17 20 17 21 18 9 19 16 15 7 6 11 16 17 13 14 13 18 14 12 10 9
7 4 6 4 3 5 8 14 17 15 13 10 15 17 19 18 20 19 19 19 18 20 13 15 17 18 17 17 21 12 13 7 14 14 16 16 14 6 2 9 7 13 11 11 13
8 6 8 5 6 7 12 11 9 16 14 13 16 18 18 18 18 19 19 19 17 19 13 16 12 15 17 21 24 19 14 18 6 6 12 7 17 12 5 5 10 26 12 14 10
7 10 7 5 5 9 12 13 17 15 11 14 16 18 16 18 18 18 16 17 20 18 11 8 7 12 17 19 5 4 17 13 10 4 10 8 14 11 12 4 5 16 22 23 13
5 5 3 7 9 8 13 14 15 19 16 9 13 13 16 17 17 17 20 17 17 19 12 3 10 16 14 21 21 22 16 12 10 3 11 15 19 20 7 9 12 13 20 17 21
5 6 4 7 11 16 15 17 18 18 13 13 15 17 18 17 18 18 19 19 18 19 1 3 13 16 20 21 22 24 26 24 22 22 17 21 20 23 18 15 17 16 15 15 20
8 6 9 12 14 14 12 15 19 14 16 18 17 16 16 17 16 20 20 17 17 16 17 14 16 18 22 19 22 24 24 25 25 23 23 21 24 20 18 19 18 20 21 19 21
18 16 6 8 12 12 11 14 20 19 13 13 19 18 15 17 18 18 17 17 17 17 15 14 12 13 16 18 19 19 20 17 20 21 17 19 21 16 18 16 15 6 10 9 16
Wind_Direction
339 337 335 334 330 330 330 326 322 316 308 302 302 306 312 314 314 284 251 269 251 262 278 256 264 235 235 243 246 241 245 250 252 255 261 268 266 185 186 220 236 255 263 313 60
337 334 332 331 329 328 325 322 319 313 308 298 299 309 314 320 309 274 192 268 268 242 246 226 234 229 235 232 233 235 241 243 248 258 269 272 271 263 176 191 220 232 257 277 324
337 333 329 327 326 323 320 320 314 310 305 297 301 311 316 330 284 113 136 142 215 235 256 285 279 276 240 241 236 231 244 254 253 258 261 264 273 279 250 200 209 212 253 257 283
335 332 328 324 321 319 318 316 311 305 298 292 297 309 315 306 320 135 132 157 223 243 264 246 243 247 247 245 242 250 246 251 257 263 271 276 281 273 271 253 195 206 218 250 252
334 330 326 323 318 314 312 308 304 299 287 280 289 311 333 242 263 144 148 177 232 254 255 260 259 244 248 249 251 247 254 256 266 262 264 273 272 281 276 273 279 208 192 219 255
332 330 326 321 317 312 308 302 299 296 283 269 275 309 261 264 129 152 169 188 252 244 274 280 285 343 314 286 278 272 267 269 264 270 273 267 261 269 267 267 261 266 190 204 236
333 331 327 322 317 311 306 306 299 283 259 246 255 293 269 250 270 176 204 226 249 265 285 258 280 296 293 289 269 275 269 268 269 261 264 262 259 245 259 265 265 255 259 217 206
332 328 325 320 315 314 315 313 308 271 242 232 241 258 262 275 246 225 232 238 254 255 264 292 293 281 279 286 285 270 264 265 258 247 243 242 256 255 253 252 255 257 258 255 214
332 327 323 318 315 317 316 332 325 256 221 217 242 215 263 156 226 239 236 246 233 232 259 269 282 273 275 263 262 243 255 255 256 243 238 228 239 249 251 260 263 235 264 247 225
333 328 322 315 311 317 288 286 280 254 205 235 262 262 257 251 190 231 231 247 286 270 255 242 251 256 247 244 259 270 263 273 264 255 203 239 264 275 272 267 268 226 246 263 271
336 332 325 310 293 291 282 283 211 207 228 247 227 242 283 242 244 229 235 228 243 252 265 261 240 250 254 254 255 276 294 298 292 298 310 275 248 260 286 281 257 226 232 233 244
346 340 327 295 271 275 281 257 25 311 292 247 234 252 255 271 262 213 228 224 231 247 258 241 251 254 263 276 286 294 286 279 279 278 277 275 270 272 271 275 274 266 222 212 217
352 346 326 259 258 265 232 341 314 313 276 286 214 232 228 217 240 259 195 228 244 264 255 267 278 291 296 283 278 260 264 274 280 291 290 292 282 275 267 258 255 256 258 248 224
351 348 324 282 290 258 247 337 319 344 277 225 192 233 211 203 245 234 255 231 243 247 264 275 290 283 299 272 272 272 275 282 291 289 283 281 281 276 283 285 244 263 230 243 229
346 344 322 263 305 301 349 317 321 270 285 152 159 106 194 210 354 197 226 232 252 272 279 275 271 273 253 252 278 270 290 301 297 288 286 273 268 272 267 261 251 243 210 220 224
340 325 298 274 267 268 325 322 275 243 258 161 156 215 222 221 247 260 192 222 262 281 281 281 279 278 275 268 247 265 289 283 277 270 258 262 256 262 256 255 272 218 171 184 187
336 304 274 280 288 330 319 279 251 244 118 238 209 230 248 259 260 230 232 240 248 260 261 266 260 245 247 257 253 239 259 260 261 245 251 254 262 339 292 247 347 133 152 171 174
334 294 251 251 281 311 299 259 255 284 310 41 335 292 272 281 275 270 269 263 259 265 265 274 273 274 289 315 249 278 247 254 264 278 288 300 285 261 271 319 172 151 174 173 196
340 311 238 242 242 289 275 243 248 280 340 337 325 291 277 270 251 270 282 289 288 278 282 299 294 303 293 308 297 285 272 285 306 314 290 280 285 285 251 227 236 173 189 206 184
332 293 248 178 198 253 258 256 287 292 333 310 295 300 291 296 307 297 267 269 296 297 274 282 293 291 297 302 239 263 263 251 233 253 263 265 270 318 333 329 213 191 201 199 199
310 267 131 176 189 241 246 266 293 339 344 312 298 297 301 304 303 298 294 295 294 292 293 280 279 287 301 278 275 302 307 329 316 277 263 272 272 201 273 0 307 236 206 194 212
306 284 140 174 254 246 245 288 343 311 299 286 285 283 278 287 286 287 292 298 307 291 282 293 315 290 270 274 291 309 244 265 246 307 276 259 270 286 141 336 25 313 279 264 212
301 290 201 201 259 300 320 316 322 309 318 316 304 300 302 296 290 288 286 300 305 298 317 352 241 290 291 287 289 41 305 311 294 331 265 288 278 277 120 146 321 307 305 315 254
285 302 191 210 254 265 295 312 305 315 300 283 294 304 300 284 278 284 288 284 296 295 148 161 264 271 277 278 295 295 257 227 220 196 256 258 286 291 264 227 217 207 274 306 301
256 296 5 300 322 328 312 298 300 298 323 324 312 300 291 297 300 296 300 307 303 302 218 248 271 273 282 288 286 289 282 277 229 233 247 263 260 269 275 265 226 212 235 265 236
296 339 335 299 292 298 292 292 297 309 334 311 300 309 309 292 298 304 304 300 296 309 309 307 292 284 281 294 292 287 292 288 277 275 276 262 268 279 273 264 260 218 239 233 252
336 331 282 285 297 294 295 304 312 317 310 302 309 310 289 296 306 304 291 283 280 280 279 280 289 293 286 294 297 292 280 274 291 293 282 279 288 297 312 332 337 305 288 328 313